Weather History for Balikesir, Turkey

Change the Weather History Date:

Sunday, September 22, 2013

  Actual Average Record
Temperature  
Mean Temperature 60 °F -  
Max Temperature 74 °F 74 °F 100 °F (2000)
Min Temperature 46 °F 53 °F 46 °F (2013)
Degree Days  
Heating Degree Days 5    
Growing Degree Days 10 (Base 50)    
Moisture  
Dew Point 45 °F    
Average Humidity 59    
Maximum Humidity 82    
Minimum Humidity 23    
Precipitation  
Precipitation 0.00 in 0.04 in - ()
Sea Level Pressure  
Sea Level Pressure 30.06 in    
Wind  
Wind Speed 5 mph ()    
Max Wind Speed 23 mph    
Max Gust Speed -    
Visibility 6.1 miles    
Events      
Averages and records for this station are not official NWS values.
T = Trace of Precipitation, MM = Missing Value Source: Averaged Metar Reports

Daily Weather History Graph

Daily Weather History Graph

Search for Another Location

Airport:

Trip Planner

Search our weather history database for the weather conditions in past years. The results will help you decide how hot, cold, wet, or windy it might be!

Date:

Astronomy

Sep. 22, 2013 Rise Set
Actual Time 6:55 AM EEST 7:05 PM EEST
Civil Twilight 6:28 AM EEST 7:32 PM EEST
Nautical Twilight 5:57 AM EEST 8:03 PM EEST
Astronomical Twilight 5:25 AM EEST 8:35 PM EEST
Moon 8:43 PM EEST (9/22) 9:55 AM EEST (9/22)
Length of Visible Light 13h 03m
Length of Day
12h 09m
Waning Gibbous, 90% of the Moon is Illuminated
Sep 22
Waning Gibbous
Sep 27
Last Quarter
Oct 5
New
Oct 12
First Quarter
Oct 19
Full

Hourly Weather History & Observations

Time (EEST) Temp. Dew Point Humidity Pressure Visibility Wind Dir Wind Speed Gust Speed Precip Events Conditions
12:50 AM 53.6 °F 42.8 °F 67% 30.06 in - WSW 1.2 mph - N/A   Clear
1:50 AM 51.8 °F 42.8 °F 71% 30.06 in - Calm Calm - N/A   Clear
2:50 AM 51.8 °F 42.8 °F 71% 30.06 in - Calm Calm - N/A   Clear
3:00 AM 52 °F 42 °F 61% 30.08 in 6 mi Calm Calm - -  
3:50 AM 50.0 °F 42.8 °F 76% 30.06 in - Calm Calm - N/A   Clear
4:50 AM 50.0 °F 42.8 °F 76% 30.06 in - Calm Calm - N/A   Clear
5:50 AM 48.2 °F 42.8 °F 82% 30.06 in - SW 2.3 mph - N/A   Clear
6:50 AM 48.2 °F 42.8 °F 82% 30.06 in - Calm Calm - N/A   Clear
7:50 AM 48.2 °F 42.8 °F 82% 30.09 in - Calm Calm - N/A   Clear
8:50 AM 55.4 °F 46.4 °F 72% 30.09 in 6.2 mi Calm Calm - N/A   Partly Cloudy
9:00 AM 56 °F 46 °F 61% 30.10 in 6 mi Calm Calm - -   Scattered Clouds
9:50 AM 59.0 °F 46.4 °F 63% 30.09 in 6.2 mi ENE 2.3 mph - N/A   Scattered Clouds
10:50 AM 60.8 °F 46.4 °F 59% 30.09 in 6.2 mi Calm Calm - N/A   Scattered Clouds
11:50 AM 68.0 °F 48.2 °F 49% 30.09 in 6.2 mi NE 3.5 mph - N/A   Scattered Clouds
12:50 PM 71.6 °F 46.4 °F 41% 30.06 in 6.2 mi NNE 13.8 mph - N/A   Scattered Clouds
1:50 PM 69.8 °F 46.4 °F 43% 30.06 in 6.2 mi North 13.8 mph - N/A   Scattered Clouds
2:50 PM 73.4 °F 42.8 °F 33% 30.04 in 6.2 mi NNE 17.3 mph - N/A   Scattered Clouds
3:00 PM 73 °F 43 °F 23% 30.04 in 6 mi NNE 17.3 mph - -   Partly Cloudy
3:50 PM 71.6 °F 42.8 °F 35% 30.04 in 6.2 mi North 19.6 mph - N/A   Scattered Clouds
4:50 PM 69.8 °F 44.6 °F 40% 30.04 in 6.2 mi NNE 23.0 mph - N/A   Scattered Clouds
5:50 PM 68.0 °F 46.4 °F 46% 30.04 in 6.2 mi NNE 20.7 mph - N/A   Partly Cloudy
6:50 PM 66.2 °F 48.2 °F 52% 30.04 in 6.2 mi North 13.8 mph - N/A   Partly Cloudy
7:50 PM 64.4 °F 48.2 °F 56% 30.06 in - NNE 15.0 mph - N/A   Clear
8:50 PM 62.6 °F 48.2 °F 59% 30.06 in - NNE 11.5 mph - N/A   Clear
9:00 PM 63 °F 48 °F 48% 30.08 in 6 mi NNE 11.5 mph - -  
9:50 PM 60.8 °F 48.2 °F 63% 30.06 in - NNE 11.5 mph - N/A   Clear
10:50 PM 60.8 °F 48.2 °F 63% 30.06 in - NNE 9.2 mph - N/A   Clear
11:50 PM 57.2 °F 50.0 °F 77% 30.06 in - North 5.8 mph - N/A   Clear